ACA1373 MMUN-CYYZ

Flight info

Callsign ACA1373
Flight time N/A
Altitude 39000
Route ROTGI2A ROTGI UM219 MYDIA M219 KNOST Q109 CAMJO DCT DANCO DCT OXMAN LINNG3
Aircraft A343/H-SDE2E3FGHIJ4J5M1RWXY/LB1D1

Departure

Time 2026-05-04 17:06
Airport Cancún International Airport (MMUN)

Arrival

Time N/A
Airport Toronto Pearson International Airport (CYYZ)
Time Latitude Longitude Altitude Speed Heading
2026-05-04 16:41 21.03545 -86.86908 23 ft 0 kts 28°
2026-05-04 16:43 21.03545 -86.86909 23 ft 0 kts 28°
2026-05-04 16:53 21.03534 -86.86915 26 ft 4 kts 27°
2026-05-04 16:53 21.03460 -86.86932 26 ft 4 kts 314°
2026-05-04 16:54 21.03457 -86.86928 22 ft 4 kts 304°
2026-05-04 16:58 21.03480 -86.86965 28 ft 10 kts 303°
2026-05-04 16:58 21.03517 -86.87025 26 ft 10 kts 303°
2026-05-04 16:59 21.03587 -86.87138 26 ft 9 kts 304°
2026-05-04 17:00 21.03671 -86.87410 29 ft 9 kts 299°
2026-05-04 17:00 21.03769 -86.87572 31 ft 12 kts 304°
2026-05-04 17:01 21.03880 -86.87749 31 ft 15 kts 304°
2026-05-04 17:01 21.03992 -86.87926 27 ft 14 kts 304°
2026-05-04 17:02 21.04098 -86.88091 31 ft 14 kts 303°
2026-05-04 17:02 21.04206 -86.88268 27 ft 15 kts 303°
2026-05-04 17:03 21.04268 -86.88364 27 ft 16 kts 305°
2026-05-04 17:03 21.04327 -86.88458 28 ft 15 kts 303°
2026-05-04 17:03 21.04437 -86.88635 28 ft 14 kts 304°
2026-05-04 17:04 21.04578 -86.88859 29 ft 19 kts 304°
2026-05-04 17:04 21.04597 -86.89037 28 ft 12 kts 217°
2026-05-04 17:05 21.04517 -86.89075 27 ft 0 kts 124°
2026-05-04 17:05 21.04191 -86.88549 28 ft 103 kts 124°
2026-05-04 17:06 21.03253 -86.87067 251 ft 166 kts 124°
2026-05-04 17:06 21.02545 -86.85627 1117 ft 169 kts 100°
2026-05-04 17:07 21.02523 -86.83470 2154 ft 179 kts 90°
2026-05-04 17:07 21.02518 -86.82547 2300 ft 193 kts 92°
2026-05-04 17:07 21.02362 -86.80524 2624 ft 217 kts 92°
2026-05-04 17:07 21.02438 -86.78821 2838 ft 240 kts 82°
2026-05-04 17:08 21.02805 -86.77037 3234 ft 256 kts 74°
2026-05-04 17:08 21.04176 -86.73410 4431 ft 269 kts 60°
2026-05-04 17:08 21.05203 -86.71691 4854 ft 276 kts 53°
2026-05-04 17:09 21.06444 -86.70128 5153 ft 277 kts 45°
2026-05-04 17:09 21.07899 -86.68732 5724 ft 281 kts 37°
2026-05-04 17:09 21.09515 -86.67557 6413 ft 282 kts 29°
2026-05-04 17:10 21.13161 -86.66064 6975 ft 285 kts 10°
2026-05-04 17:10 21.19016 -86.66343 6990 ft 282 kts 345°
2026-05-04 17:11 21.20955 -86.66740 6992 ft 283 kts 352°
2026-05-04 17:11 21.22928 -86.66875 6989 ft 284 kts 357°
2026-05-04 17:11 21.26879 -86.66917 7171 ft 283 kts 358°
2026-05-04 17:12 21.28842 -86.66924 7608 ft 286 kts 358°
2026-05-04 17:12 21.32843 -86.66941 8957 ft 288 kts 358°
2026-05-04 17:13 21.38990 -86.66971 10489 ft 308 kts 357°
2026-05-04 17:14 21.45841 -86.67006 11235 ft 349 kts 357°
2026-05-04 17:14 21.48314 -86.67018 11470 ft 361 kts 357°
2026-05-04 17:14 21.53499 -86.67042 12008 ft 381 kts 357°
2026-05-04 17:15 21.56164 -86.67053 12418 ft 385 kts 357°
2026-05-04 17:15 21.61551 -86.67076 13306 ft 392 kts 357°
2026-05-04 17:16 21.67066 -86.67102 14181 ft 398 kts 357°
2026-05-04 17:16 21.75446 -86.67141 15385 ft 406 kts 357°
2026-05-04 17:17 21.78253 -86.67154 15803 ft 408 kts 357°
2026-05-04 17:17 21.86856 -86.66621 17007 ft 420 kts
2026-05-04 17:18 21.89741 -86.66025 17411 ft 423 kts
2026-05-04 17:18 21.95443 -86.64691 18211 ft 429 kts
2026-05-04 17:19 22.01328 -86.63285 18943 ft 434 kts
2026-05-04 17:19 22.07246 -86.61900 19717 ft 437 kts
2026-05-04 17:20 22.13191 -86.60526 20450 ft 441 kts
2026-05-04 17:20 22.19248 -86.59130 21179 ft 445 kts
2026-05-04 17:20 22.22284 -86.58429 21542 ft 447 kts
2026-05-04 17:21 22.28356 -86.57026 22248 ft 450 kts
2026-05-04 17:21 22.34524 -86.55599 22917 ft 455 kts
2026-05-04 17:22 22.37626 -86.54881 23254 ft 457 kts
2026-05-04 17:22 22.40753 -86.54158 23582 ft 459 kts
2026-05-04 17:23 22.50180 -86.51974 24384 ft 466 kts
2026-05-04 17:23 22.53360 -86.51235 24673 ft 467 kts
2026-05-04 17:23 22.59710 -86.49759 25258 ft 470 kts
2026-05-04 17:24 22.62920 -86.49013 25554 ft 471 kts
2026-05-04 17:24 22.72563 -86.46770 26398 ft 476 kts
2026-05-04 17:25 22.75814 -86.46014 26678 ft 478 kts
2026-05-04 17:25 22.82360 -86.44497 27183 ft 482 kts
2026-05-04 17:26 22.88944 -86.42956 27695 ft 485 kts
2026-05-04 17:26 22.98852 -86.40635 28427 ft 489 kts
2026-05-04 17:27 23.05539 -86.39070 28951 ft 491 kts
2026-05-04 17:27 23.12178 -86.37512 29617 ft 489 kts
2026-05-04 17:28 23.18826 -86.35951 30247 ft 487 kts
2026-05-04 17:29 23.28707 -86.33631 31067 ft 484 kts
2026-05-04 17:29 23.38559 -86.31321 31877 ft 480 kts
2026-05-04 17:30 23.48262 -86.28986 32698 ft 476 kts
2026-05-04 17:31 23.54730 -86.27440 33164 ft 474 kts
2026-05-04 17:31 23.64311 -86.25176 33818 ft 471 kts
2026-05-04 17:32 23.70726 -86.23661 34249 ft 470 kts
2026-05-04 17:33 23.80276 -86.21405 34669 ft 469 kts
2026-05-04 17:33 23.83472 -86.20649 34793 ft 470 kts
2026-05-04 17:34 23.93083 -86.18372 35156 ft 471 kts
2026-05-04 17:34 23.96289 -86.17612 35204 ft 473 kts
2026-05-04 17:35 24.05868 -86.14511 35450 ft 491 kts 20°
2026-05-04 17:35 24.11935 -86.10983 35683 ft 495 kts 22°
2026-05-04 17:35 24.14935 -86.09126 35791 ft 495 kts 23°
2026-05-04 17:36 24.17932 -86.07247 35908 ft 496 kts 23°
2026-05-04 17:36 24.20893 -86.05387 36016 ft 496 kts 23°
2026-05-04 17:36 24.23898 -86.03505 36114 ft 496 kts 22°
2026-05-04 17:36 24.26899 -86.01631 36219 ft 496 kts 22°
2026-05-04 17:37 24.29903 -85.99762 36318 ft 496 kts 22°
2026-05-04 17:37 24.35924 -85.96021 36569 ft 496 kts 22°
2026-05-04 17:37 24.38931 -85.94152 36689 ft 495 kts 22°
2026-05-04 17:38 24.41905 -85.92304 36772 ft 496 kts 22°
2026-05-04 17:38 24.47911 -85.88567 36959 ft 496 kts 22°
2026-05-04 17:39 24.56913 -85.82958 37214 ft 496 kts 22°
2026-05-04 17:39 24.62934 -85.79201 37390 ft 497 kts 22°
2026-05-04 17:40 24.68920 -85.75460 37548 ft 497 kts 22°
2026-05-04 17:40 24.74935 -85.71698 37699 ft 497 kts 22°
2026-05-04 17:41 24.80957 -85.67927 37853 ft 497 kts 21°
2026-05-04 17:41 24.86942 -85.64181 37954 ft 498 kts 22°
2026-05-04 17:42 24.92978 -85.60390 38067 ft 499 kts 22°
2026-05-04 17:42 24.99014 -85.56595 38248 ft 498 kts 22°
2026-05-04 17:43 25.05003 -85.52826 38325 ft 500 kts 22°
2026-05-04 17:43 25.11053 -85.49019 38407 ft 501 kts 22°
2026-05-04 17:44 25.17121 -85.45197 38496 ft 501 kts 22°
2026-05-04 17:44 25.23197 -85.41357 38487 ft 504 kts 22°
2026-05-04 17:45 25.29275 -85.37514 38690 ft 503 kts 22°
2026-05-04 17:45 25.32358 -85.35785 38966 ft 488 kts 14°
2026-05-04 17:45 25.35538 -85.34602 39047 ft 475 kts
2026-05-04 17:46 25.41956 -85.33548 39059 ft 466 kts 357°
2026-05-04 17:46 25.48436 -85.32892 39062 ft 467 kts 356°
2026-05-04 17:47 25.54926 -85.32284 39065 ft 469 kts 356°
2026-05-04 17:47 25.61451 -85.31641 39065 ft 472 kts 357°
2026-05-04 17:48 25.67976 -85.30973 39063 ft 474 kts 357°
2026-05-04 17:48 25.74573 -85.30291 39062 ft 476 kts 357°
2026-05-04 17:49 25.81157 -85.29610 39062 ft 478 kts 357°
2026-05-04 17:49 25.87798 -85.28924 39095 ft 480 kts 358°
2026-05-04 17:50 25.94490 -85.28233 39065 ft 483 kts 358°
2026-05-04 17:50 26.01150 -85.27543 39064 ft 483 kts 358°
2026-05-04 17:51 26.07831 -85.26855 39059 ft 482 kts 358°
2026-05-04 17:51 26.14505 -85.26162 39059 ft 482 kts 358°
2026-05-04 17:52 26.20044 -85.25586 39077 ft 482 kts 358°
2026-05-04 17:52 26.26728 -85.24891 39061 ft 481 kts 358°
2026-05-04 17:53 26.33399 -85.24198 39061 ft 480 kts 358°
2026-05-04 17:53 26.39990 -85.22880 39065 ft 492 kts 11°
2026-05-04 17:54 26.46521 -85.20427 39061 ft 496 kts 13°
2026-05-04 17:54 26.53018 -85.17772 39065 ft 497 kts 13°
2026-05-04 17:55 26.59505 -85.15097 39057 ft 496 kts 13°
2026-05-04 17:55 26.65965 -85.12454 39066 ft 496 kts 13°
2026-05-04 17:56 26.72469 -85.09804 39062 ft 496 kts 13°
2026-05-04 17:56 26.78958 -85.07161 39086 ft 496 kts 13°
2026-05-04 17:57 26.85423 -85.04524 39070 ft 495 kts 13°
2026-05-04 17:57 26.91922 -85.01870 39064 ft 496 kts 13°
2026-05-04 17:58 26.98381 -84.99229 39061 ft 497 kts 13°
2026-05-04 17:58 27.04891 -84.96562 39064 ft 497 kts 13°
2026-05-04 17:59 27.11410 -84.93887 39070 ft 497 kts 13°
2026-05-04 18:00 27.21113 -84.89900 39070 ft 495 kts 13°
2026-05-04 18:00 27.27595 -84.87235 39072 ft 495 kts 13°
2026-05-04 18:01 27.34039 -84.84582 39072 ft 495 kts 13°
2026-05-04 18:01 27.40520 -84.81910 39078 ft 495 kts 13°
2026-05-04 18:02 27.46670 -84.78227 39068 ft 510 kts 32°
2026-05-04 18:02 27.49302 -84.75502 39070 ft 518 kts 44°
2026-05-04 18:02 27.51432 -84.72249 39070 ft 526 kts 57°
2026-05-04 18:02 27.53104 -84.68561 39068 ft 529 kts 62°
2026-05-04 18:03 27.56034 -84.60954 39071 ft 533 kts 65°
2026-05-04 18:03 27.58861 -84.53214 39073 ft 535 kts 65°
2026-05-04 18:04 27.61718 -84.45490 39075 ft 536 kts 64°
2026-05-04 18:05 27.66091 -84.33826 39072 ft 538 kts 64°
2026-05-04 18:05 27.68992 -84.26094 39075 ft 537 kts 64°
2026-05-04 18:06 27.73360 -84.14420 39075 ft 537 kts 65°
2026-05-04 18:06 27.76263 -84.06638 39074 ft 537 kts 65°
2026-05-04 18:07 27.79145 -83.98894 39076 ft 537 kts 65°
2026-05-04 18:07 27.82039 -83.91105 39070 ft 537 kts 65°
2026-05-04 18:08 27.84929 -83.83312 39074 ft 538 kts 65°
2026-05-04 18:08 27.87822 -83.75491 39075 ft 539 kts 65°
2026-05-04 18:09 27.93580 -83.59877 39083 ft 538 kts 65°
2026-05-04 18:10 27.96475 -83.52092 39058 ft 534 kts 62°
2026-05-04 18:10 27.98278 -83.48494 39073 ft 529 kts 51°
2026-05-04 18:10 28.00587 -83.45305 39071 ft 521 kts 39°
2026-05-04 18:11 28.03347 -83.42687 39073 ft 511 kts 27°
2026-05-04 18:11 28.06421 -83.40756 39073 ft 500 kts 16°
2026-05-04 18:11 28.12948 -83.38446 39072 ft 491 kts
2026-05-04 18:12 28.19592 -83.36573 39077 ft 491 kts
2026-05-04 18:12 28.26240 -83.34730 39078 ft 490 kts
2026-05-04 18:13 28.32808 -83.32865 39077 ft 489 kts
2026-05-04 18:14 28.42722 -83.30005 39078 ft 489 kts
2026-05-04 18:14 28.49286 -83.28105 39078 ft 489 kts
2026-05-04 18:15 28.62477 -83.24282 39082 ft 488 kts
2026-05-04 18:16 28.69058 -83.22371 39080 ft 488 kts
2026-05-04 18:16 28.75602 -83.20469 39083 ft 488 kts
2026-05-04 18:17 28.85464 -83.17597 39084 ft 487 kts
2026-05-04 18:18 28.95344 -83.14717 39079 ft 487 kts
2026-05-04 18:18 29.01896 -83.12802 39078 ft 488 kts
2026-05-04 18:19 29.11780 -83.09909 39085 ft 488 kts
2026-05-04 18:19 29.18318 -83.07991 39082 ft 487 kts
2026-05-04 18:20 29.24895 -83.06061 39085 ft 487 kts
2026-05-04 18:20 29.31467 -83.04132 39085 ft 487 kts
2026-05-04 18:21 29.38041 -83.02196 39105 ft 487 kts
2026-05-04 18:21 29.44564 -83.00271 39087 ft 486 kts
2026-05-04 18:22 29.51106 -82.98340 39094 ft 485 kts
2026-05-04 18:22 29.57632 -82.96419 39098 ft 485 kts
2026-05-04 18:23 29.64200 -82.94474 39133 ft 486 kts
2026-05-04 18:23 29.70713 -82.92541 39100 ft 485 kts
2026-05-04 18:24 29.77252 -82.90600 39101 ft 485 kts
2026-05-04 18:24 29.83796 -82.88658 39102 ft 485 kts
2026-05-04 18:25 29.90338 -82.86714 39107 ft 485 kts
2026-05-04 18:25 29.96837 -82.84784 39114 ft 485 kts
2026-05-04 18:26 30.03375 -82.82831 39111 ft 484 kts
2026-05-04 18:26 30.09907 -82.80878 39110 ft 484 kts
2026-05-04 18:27 30.16437 -82.78925 39108 ft 484 kts